EW6171 Weather Reports


time (UTC)temp
C
wind
direction
speed
KPH
gust
KPH
rain 1hr
cm
rain 24hr
cm
rain mn
cm
humidity
%
barometer
mb
20260507113448 -17 5 11.3 16.1 0.00 0.00 0.00 1010.9
20260507112943 -17 19 9.7 17.7 0.00 0.00 0.00 1010.7
20260507112436 -17 10 8.0 17.7 0.00 0.00 0.00 1010.7
20260507111927 -17 10 8.0 16.1 0.00 0.00 0.00 1010.6
20260507111657 -17 5 6.4 16.1 0.00 0.00 0.00 1010.5
20260507110922 -17 10 6.4 16.1 0.00 0.00 0.00 1010.4
20260507110419 -17 10 8.0 16.1 0.00 0.00 0.00 1010.3
20260507110144 -17 5 8.0 16.1 0.00 0.00 0.00 1010.4
20260507105410 -17 10 8.0 17.7 0.00 0.00 0.00 1010.4
20260507104918 -17 352 9.7 17.7 0.00 0.00 0.00 1010.3
20260507104349 -17 39 9.7 19.3 0.00 0.00 0.00 1010.2
20260507103844 -17 10 11.3 19.3 0.00 0.00 0.00 1010.1
20260507103341 -17 5 11.3 17.7 0.00 0.00 0.00 1010.0
20260507102833 -17 10 11.3 17.7 0.00 0.00 0.00 1010.1
20260507102333 -17 10 9.7 16.1 0.00 0.00 0.00 1010.2
20260507101831 -17 5 9.7 16.1 0.00 0.00 0.00 1010.1
20260507101327 -17 10 11.3 17.7 0.00 0.00 0.00 1010.1
20260507100826 -17 10 12.9 19.3 0.00 0.00 0.00 1010.1
20260507100323 -17 10 14.5 19.3 0.00 0.00 0.00 1010.0
20260507095819 -17 15 11.3 19.3 0.00 0.00 0.00 1009.9
20260507095312 -17 10 9.7 16.1 0.00 0.00 0.00 1009.8
20260507094804 -17 10 6.4 16.1 0.00 0.00 0.00 1009.6
20260507094302 -17 5 6.4 16.1 0.00 0.00 0.00 1009.6
20260507094026 -17 0 8.0 16.1 0.00 0.00 0.00 1009.7
20260507093246 -17 5 9.7 19.3 0.00 0.00 0.00 1009.7
20260507092735 -17 33 11.3 19.3 0.00 0.00 0.00 1009.6
20260507092227 -17 10 8.0 17.7 0.00 0.00 0.00 1009.7
20260507091941 -17 39 8.0 16.1 0.00 0.00 0.00 1009.6
20260507091432 -17 42 8.0 16.1 0.00 0.00 0.00 1009.6
20260507090652 -17 51 8.0 16.1 0.00 0.00 0.00 1009.5
20260507090425 -17 22 8.0 14.5 0.00 0.00 0.00 1009.6
20260507085641 -17 19 8.0 20.9 0.00 0.00 0.00 1009.6
20260507085141 -17 20 9.7 20.9 0.00 0.00 0.00 1009.6
20260507084640 -17 10 11.3 17.7 0.00 0.00 0.00 1009.6
20260507084130 -17 359 11.3 19.3 0.00 0.00 0.00 1009.5
20260507083617 -17 10 11.3 19.3 0.00 0.00 0.00 1009.5
20260507083108 -17 5 9.7 17.7 0.00 0.00 0.00 1009.5
20260507082558 -17 10 8.0 16.1 0.00 0.00 0.00 1009.5
20260507082046 -17 10 8.0 17.7 0.00 0.00 0.00 1009.5
20260507081802 -17 348 8.0 17.7 0.00 0.00 0.00 1009.5
20260507081022 -17 10 9.7 17.7 0.00 0.00 0.00 1009.5
20260507080511 -17 10 8.0 17.7 0.00 0.00 0.00 1009.5
20260507080001 -17 69 8.0 17.7 0.00 0.00 0.00 1009.5
20260507075450 -17 10 6.4 14.5 0.00 0.00 0.00 1009.5
20260507075210 -17 10 6.4 14.5 0.00 0.00 0.00 1009.5
20260507074430 -17 10 6.4 14.5 0.00 0.00 0.00 1009.4
20260507073925 -17 32 8.0 14.5 0.00 0.00 0.00 1009.5
20260507073416 -17 5 9.7 17.7 0.00 0.00 0.00 1009.5
20260507072905 -17 10 8.0 17.7 0.00 0.00 0.00 1009.6
20260507072355 -17 10 8.0 17.7 0.00 0.00 0.00 1009.7
20260507071845 -17 36 8.0 17.7 0.00 0.00 0.00 1009.7
20260507071340 -17 15 9.7 17.7 0.00 0.00 0.00 1009.6
20260507071103 -17 10 9.7 17.7 0.00 0.00 0.00 1009.7
20260507070319 -17 10 8.0 17.7 0.00 0.00 0.00 1009.7
20260507065807 -17 47 9.7 16.1 0.00 0.00 0.00 1009.8
20260507065529 -17 42 9.7 19.3 0.00 0.00 0.00 1009.8
20260507064241 -17 358 11.3 20.9 0.00 0.00 0.00 1009.8
20260507063731 -17 10 11.3 20.9 0.00 0.00 0.00 1009.9
20260507063452 -17 345 11.3 19.3 0.00 0.00 0.00 1009.9
20260507062722 -17 358 9.7 17.7 0.00 0.00 0.00 1009.9
20260507062223 -17 51 8.0 17.7 0.00 0.00 0.00 1009.8
20260507061713 -17 10 9.7 17.7 0.00 0.00 0.00 1009.9
20260507061205 -17 10 9.7 17.7 0.00 0.00 0.00 1009.8
20260507060655 -17 10 11.3 17.7 0.00 0.00 0.00 1009.9
20260507060145 -17 5 9.7 17.7 0.00 0.00 0.00 1009.7
20260507055635 -17 341 8.0 17.7 0.00 0.00 0.00 1009.7
20260507055124 -17 10 9.7 17.7 0.00 0.00 0.00 1009.5
20260507054615 -17 46 9.7 17.7 0.00 0.00 0.00 1009.5
20260507054055 -17 27 8.0 16.1 0.00 0.00 0.00 1009.5
20260507053546 -17 10 8.0 16.1 0.00 0.00 0.00 1009.5
20260507053035 -17 15 8.0 17.7 0.00 0.00 0.00 1009.4
20260507052523 -17 1 9.7 19.3 0.00 0.00 0.00 1009.4
20260507052244 -17 10 12.9 19.3 0.00 0.00 0.00 1009.3
20260507051724 -17 32 11.3 19.3 0.00 0.00 0.00 1009.3
20260507050421 -17 19 11.3 20.9 0.00 0.00 0.00 1009.4
20260507045914 -17 10 12.9 19.3 0.00 0.00 0.00 1009.5
20260507045405 -17 10 11.3 19.3 0.00 0.00 0.00 1009.5
20260507044854 -17 10 8.0 16.1 0.00 0.00 0.00 1009.5
20260507043826 -17 5 8.0 16.1 0.00 0.00 0.00 1009.4
20260507043316 -17 15 9.7 17.7 0.00 0.00 0.00 1009.2
20260507042805 -17 24 9.7 19.3 0.00 0.00 0.00 1009.3
20260507042255 -17 0 8.0 19.3 0.00 0.00 0.00 1009.4
20260507041744 -17 49 9.7 19.3 0.00 0.00 0.00 1009.3
20260507041235 -17 27 11.3 17.7 0.00 0.00 0.00 1009.2
20260507040722 -17 10 11.3 19.3 0.00 0.00 0.00 1009.3
20260507040212 -17 5 11.3 20.9 0.00 0.00 0.00 1009.1
20260507035702 -17 38 11.3 20.9 0.00 0.00 0.00 1009.0
20260507034642 -17 19 9.7 22.5 0.00 0.00 0.00 1008.9
20260507034132 -17 29 11.3 22.5 0.00 0.00 0.00 1008.8
20260507033622 -17 10 11.3 22.5 0.00 0.00 0.00 1008.8
20260507033112 -17 34 9.7 19.3 0.00 0.00 0.00 1008.7
20260507032554 -17 29 9.7 20.9 0.00 0.00 0.00 1008.6
20260507032045 -17 20 9.7 16.1 0.00 0.00 0.00 1008.6
20260507031534 -17 43 9.7 17.7 0.00 0.00 0.00 1008.4
20260507031248 -17 5 9.7 17.7 0.00 0.00 0.00 1008.4
20260507030738 -17 10 11.3 17.7 0.00 0.00 0.00 1008.4
20260507025448 -17 10 4.8 17.7 0.00 0.00 0.00 1008.2
20260507024943 -17 10 1.6 6.4 0.00 0.00 0.00 1008.1
20260507024432 -17 10 0.0 3.2 0.00 0.00 0.00 1008.0
20260507023923 -17 61 0.0 0.0 0.00 0.00 0.00 1007.8
20260507023413 -17 109 0.0 0.0 0.00 0.00 0.00 1007.7
20260507022905 -17 109 0.0 0.0 0.00 0.00 0.00 1007.6
20260507022354 -17 109 0.0 0.0 0.00 0.00 0.00 1007.6
20260507021845 -17 109 0.0 0.0 0.00 0.00 0.00 1007.4
20260507021337 -17 109 0.0 0.0 0.00 0.00 0.00 1007.3
20260507020829 -17 109 0.0 1.6 0.00 0.00 0.00 1007.2
20260507020321 -17 109 0.0 3.2 0.00 0.00 0.00 1007.0
20260507015811 -17 114 0.0 3.2 0.00 0.00 0.00 1006.8
20260507015307 -17 112 0.0 3.2 0.00 0.00 0.00 1006.7
20260507014801 -17 115 0.0 3.2 0.00 0.00 0.00 1006.7
20260507014252 -17 108 0.0 3.2 0.00 0.00 0.00 1006.6
20260507013237 -17 113 1.6 3.2 0.00 0.00 0.00 1006.6
20260507012734 -17 114 0.0 3.2 0.00 0.00 0.00 1006.5
20260507012230 -17 116 0.0 3.2 0.00 0.00 0.00 1006.5
20260507011725 -17 117 0.0 3.2 0.00 0.00 0.00 1006.4
20260507011218 -17 117 0.0 1.6 0.00 0.00 0.00 1006.3
20260507010715 -17 117 0.0 1.6 0.00 0.00 0.00 1006.3
20260507010212 -17 117 0.0 0.0 0.00 0.00 0.00 1006.3
20260507005946 -17 117 0.0 0.0 0.00 0.00 0.00 1006.3
20260507005210 -17 117 0.0 1.6 0.00 0.00 0.00 1006.3
20260507004710 -17 117 0.0 3.2 0.00 0.00 0.00 1006.2
20260507004206 -17 156 1.6 6.4 0.00 0.00 0.00 1006.1
20260507003709 -17 146 4.8 12.9 0.00 0.00 0.00 1005.9
20260507003438 -17 10 4.8 12.9 0.00 0.00 0.00 1005.9
20260507002704 -17 10 3.2 12.9 0.00 0.00 0.00 1005.7
20260507002159 -17 150 4.8 12.9 0.00 0.00 0.00 1005.7
20260507001138 -17 10 8.0 16.1 0.00 0.00 0.00 1005.5
20260507000634 -17 10 9.7 16.1 0.00 0.00 0.00 1005.4
20260507000358 -17 10 11.3 16.1 0.00 0.00 0.00 1005.4
20260506235622 -17 10 9.7 16.1 0.00 0.00 0.00 1005.4
20260506235115 -17 10 8.0 14.5 0.00 0.00 0.00 1005.5
20260506234610 -17 10 8.0 12.9 0.00 0.00 0.00 1005.5
20260506234053 -17 10 8.0 14.5 0.00 0.00 0.00 1005.5
20260506233545 -17 10 8.0 14.5 0.00 0.00 0.00 1005.5
20260506233043 -17 138 8.0 12.9 0.00 0.00 0.00 1005.4
20260506232537 -17 10 8.0 12.9 0.00 0.00 0.00 1005.4
20260506232025 -17 10 6.4 12.9 0.00 0.00 0.00 1005.4
20260506231518 -17 10 6.4 12.9 0.00 0.00 0.00 1005.3
20260506231012 -17 10 6.4 12.9 0.00 0.00 0.00 1005.3
20260506230508 -17 10 8.0 12.9 0.00 0.00 0.00 1005.3
20260506225957 -17 10 8.0 16.1 0.00 0.00 0.00 1005.3
20260506225459 -17 10 8.0 16.1 0.00 0.00 0.00 1005.2
20260506224947 -17 10 8.0 14.5 0.00 0.00 0.00 1005.1
20260506224438 -17 10 8.0 16.1 0.00 0.00 0.00 1005.2
20260506223933 -17 10 9.7 16.1 0.00 0.00 0.00 1005.3
20260506223427 -17 10 9.7 14.5 0.00 0.00 0.00 1005.2
20260506222918 -17 10 9.7 17.7 0.00 0.00 0.00 1005.1
20260506222408 -17 10 11.3 17.7 0.00 0.00 0.00 1005.1
20260506221858 -17 10 11.3 16.1 0.00 0.00 0.00 1005.1
20260506221348 -17 10 9.7 16.1 0.00 0.00 0.00 1005.1
20260506220837 -17 136 9.7 16.1 0.00 0.00 0.00 1005.3
20260506220559 -17 10 9.7 16.1 0.00 0.00 0.00 1005.3
20260506220053 -17 10 9.7 16.1 0.00 0.00 0.00 1005.2
20260506215322 -17 10 9.7 16.1 0.00 0.00 0.00 1005.2
20260506215042 -17 10 9.7 16.1 0.00 0.00 0.00 1005.2
20260506214302 -17 10 11.3 16.1 0.00 0.00 0.00 1005.2
20260506213801 -17 10 11.3 16.1 0.00 0.00 0.00 1005.3
20260506212801 -17 10 11.3 17.7 0.00 0.00 0.00 1005.4
20260506212523 -17 10 9.7 17.7 0.00 0.00 0.00 1005.4
20260506211742 -17 10 11.3 16.1 0.00 0.00 0.00 1005.3
20260506211232 -17 10 12.9 19.3 0.00 0.00 0.00 1005.4
20260506210725 -17 10 14.5 17.7 0.00 0.00 0.00 1005.4
20260506205928 -17 10 14.5 19.3 0.00 0.00 0.00 1005.4
20260506205147 -17 10 16.1 19.3 0.00 0.00 0.00 1005.5
20260506204111 -17 10 16.1 19.3 0.00 0.00 0.00 1005.5
20260506203601 -17 10 12.9 19.3 0.00 0.00 0.00 1005.6
20260506203101 -17 10 12.9 20.9 0.00 0.00 0.00 1005.5
20260506202551 -17 10 12.9 17.7 0.00 0.00 0.00 1005.5
20260506202041 -17 10 12.9 17.7 0.00 0.00 0.00 1005.5
20260506201802 -17 10 11.3 17.7 0.00 0.00 0.00 1005.6
20260506201021 -17 10 12.9 17.7 0.00 0.00 0.00 1005.6
20260506200511 -17 10 11.3 17.7 0.00 0.00 0.00 1005.7
20260506200001 -17 10 9.7 16.1 0.00 0.00 0.00 1005.8
20260506195451 -17 10 11.3 16.1 0.00 0.00 0.00 1005.8
20260506194941 -17 10 9.7 16.1 0.00 0.00 0.00 1005.8
20260506194702 -17 10 4.8 16.1 0.00 0.00 0.00 1005.9
20260506193921 -17 175 1.6 8.0 0.00 0.00 0.00 1006.0
20260506193411 -17 191 1.6 6.4 0.00 0.00 0.00 1006.1
20260506192613 -17 10 0.0 6.4 0.00 0.00 0.00 1006.3
20260506192103 -17 104 0.0 4.8 0.00 0.00 0.00 1006.4
20260506191319 -17 117 0.0 4.8 0.00 0.00 0.00 1006.4
20260506191041 -17 106 0.0 4.8 0.00 0.00 0.00 1006.5
20260506190542 -17 124 0.0 4.8 0.00 0.00 0.00 1006.6
20260506185801 -17 10 0.0 4.8 0.00 0.00 0.00 1006.7
20260506185252 -17 10 0.0 4.8 0.00 0.00 0.00 1006.8
20260506184741 -17 125 0.0 3.2 0.00 0.00 0.00 1006.9
20260506184509 -17 138 1.6 6.4 0.00 0.00 0.00 1006.9
20260506183958 -17 10 3.2 9.7 0.00 0.00 0.00 1007.0
20260506183217 -17 10 4.8 9.7 0.00 0.00 0.00 1007.1
20260506182707 -17 10 4.8 9.7 0.00 0.00 0.00 1007.2
20260506182157 -17 10 6.4 12.9 0.00 0.00 0.00 1007.2
20260506181918 -17 10 6.4 12.9 0.00 0.00 0.00 1007.2
20260506181406 -17 10 8.0 14.5 0.00 0.00 0.00 1007.2
20260506180856 -17 133 9.7 14.5 0.00 0.00 0.00 1007.3
20260506180115 -17 10 9.7 16.1 0.00 0.00 0.00 1007.3
20260506175605 -17 10 11.3 16.1 0.00 0.00 0.00 1007.2
20260506175055 -17 10 12.9 17.7 0.00 0.00 0.00 1007.2
20260506174817 -17 10 12.9 17.7 0.00 0.00 0.00 1007.2
20260506174035 -17 163 12.9 17.7 0.00 0.00 0.00 1007.2
20260506173525 -17 10 14.5 19.3 0.00 0.00 0.00 1007.2
20260506173015 -17 10 11.3 19.3 0.00 0.00 0.00 1007.2
20260506172459 -17 10 9.7 16.1 0.00 0.00 0.00 1007.3
20260506172222 -17 10 9.7 16.1 0.00 0.00 0.00 1007.3
20260506171451 -17 10 11.3 17.7 0.00 0.00 0.00 1007.2
20260506170942 -17 10 12.9 17.7 0.00 0.00 0.00 1007.2
20260506170431 -17 10 11.3 17.7 0.00 0.00 0.00 1007.2
20260506165920 -17 10 11.3 16.1 0.00 0.00 0.00 1007.3
20260506165411 -17 10 9.7 16.1 0.00 0.00 0.00 1007.3
20260506164901 -17 10 8.0 14.5 0.00 0.00 0.00 1007.2
20260506164352 -17 10 4.8 12.9 0.00 0.00 0.00 1007.3
20260506164113 -17 10 3.2 6.4 0.00 0.00 0.00 1007.3
20260506163325 -17 10 4.8 11.3 0.00 0.00 0.00 1007.3
20260506163039 -17 131 4.8 12.9 0.00 0.00 0.00 1007.2
20260506162257 -17 10 6.4 12.9 0.00 0.00 0.00 1007.2
20260506162019 -17 10 6.4 9.7 0.00 0.00 0.00 1007.1
20260506161237 -17 10 6.4 12.9 0.00 0.00 0.00 1007.0
20260506160730 -17 10 6.4 12.9 0.00 0.00 0.00 1007.0
20260506160222 -17 10 6.4 12.9 0.00 0.00 0.00 1006.9
20260506155943 -17 10 9.7 16.1 0.00 0.00 0.00 1006.8
20260506155434 -17 10 9.7 14.5 0.00 0.00 0.00 1006.8
20260506154657 -17 10 11.3 17.7 0.00 0.00 0.00 1006.6
20260506154156 -17 10 11.3 17.7 0.00 0.00 0.00 1006.6
20260506153646 -17 10 11.3 17.7 0.00 0.00 0.00 1006.5
20260506153143 -17 10 12.9 17.7 0.00 0.00 0.00 1006.6
20260506152637 -17 10 12.9 17.7 0.00 0.00 0.00 1006.4
20260506152131 -17 10 14.5 17.7 0.00 0.00 0.00 1006.4
20260506151625 -17 10 12.9 17.7 0.00 0.00 0.00 1006.3
20260506151122 -17 10 11.3 17.7 0.00 0.00 0.00 1006.2
20260506150847 -17 114 14.5 17.7 0.00 0.00 0.00 1006.3
20260506150112 -17 10 14.5 19.3 0.00 0.00 0.00 1006.1
20260506145608 -17 129 14.5 19.3 0.00 0.00 0.00 1006.1
20260506145335 -17 126 14.5 19.3 0.00 0.00 0.00 1006.1
20260506144556 -17 10 14.5 19.3 0.00 0.00 0.00 1006.1
20260506144324 -17 10 12.9 17.7 0.00 0.00 0.00 1006.1
20260506143547 -17 10 11.3 17.7 0.00 0.00 0.00 1006.0
20260506143313 -17 10 11.3 16.1 0.00 0.00 0.00 1005.9
20260506142538 -17 125 11.3 17.7 0.00 0.00 0.00 1005.8
20260506142026 -17 10 12.9 17.7 0.00 0.00 0.00 1005.8
20260506141518 -17 111 9.7 16.1 0.00 0.00 0.00 1005.8
20260506141017 -17 117 8.0 14.5 0.00 0.00 0.00 1006.1
20260506140512 -17 121 8.0 14.5 0.00 0.00 0.00 1006.0
20260506135959 -17 117 8.0 14.5 0.00 0.00 0.00 1006.0
20260506135451 -17 118 6.4 12.9 0.00 0.00 0.00 1006.1
20260506134949 -17 117 6.4 12.9 0.00 0.00 0.00 1006.0
20260506134711 -17 115 8.0 14.5 0.00 0.00 0.00 1005.9
20260506133933 -17 108 6.4 12.9 0.00 0.00 0.00 1005.9
20260506133427 -17 108 6.4 12.9 0.00 0.00 0.00 1006.0
20260506132926 -17 102 8.0 12.9 0.00 0.00 0.00 1005.9
20260506132422 -17 124 6.4 12.9 0.00 0.00 0.00 1005.8
20260506131916 -17 127 6.4 12.9 0.00 0.00 0.00 1005.8
20260506131400 -17 10 4.8 12.9 0.00 0.00 0.00 1005.9
20260506130853 -17 115 6.4 11.3 0.00 0.00 0.00 1005.9
20260506130617 -17 116 6.4 11.3 0.00 0.00 0.00 1005.9
20260506125842 -17 117 6.4 11.3 0.00 0.00 0.00 1005.8
20260506125329 -17 111 4.8 11.3 0.00 0.00 0.00 1005.8
20260506124820 -17 120 3.2 6.4 0.00 0.00 0.00 1005.9
20260506124312 -17 116 3.2 6.4 0.00 0.00 0.00 1005.9
20260506124023 -17 137 4.8 9.7 0.00 0.00 0.00 1005.8
20260506123246 -17 10 4.8 6.4 0.00 0.00 0.00 1005.7
20260506122736 -17 121 3.2 6.4 0.00 0.00 0.00 1005.7
20260506122228 -17 10 4.8 6.4 0.00 0.00 0.00 1005.7
20260506121726 -17 125 3.2 6.4 0.00 0.00 0.00 1005.7
20260506121217 -17 127 3.2 6.4 0.00 0.00 0.00 1005.6
20260506120706 -17 124 3.2 6.4 0.00 0.00 0.00 1005.6
20260506120156 -17 129 3.2 6.4 0.00 0.00 0.00 1005.5
20260506115647 -17 118 3.2 6.4 0.00 0.00 0.00 1005.5
20260506115408 -17 131 3.2 6.4 0.00 0.00 0.00 1005.4
20260506114626 -17 127 4.8 8.0 0.00 0.00 0.00 1005.4
20260506114117 -17 10 3.2 8.0 0.00 0.00 0.00 1005.3
20260506113606 -17 137 3.2 9.7 0.00 0.00 0.00 1005.3